Time,TemperatureF,DewpointF,PressureIn,WindDirection,WindDirectionDegrees,WindSpeedMPH,WindSpeedGustMPH,Humidity,HourlyPrecipIn,Conditions,Clouds,dailyrainin,SoftwareType,DateUTC
2013-10-19 07:52:00,51.0,14.0,30.17,NNW,346,4.0,6.0,22,0.00,,,0.00,,2013-10-19 14:52:00,
2013-10-19 08:22:00,52.0,15.0,30.18,NNW,346,0.0,1.0,23,0.00,,,0.00,,2013-10-19 15:22:00,
2013-10-19 08:55:00,53.0,14.0,30.19,NNW,346,0.0,0.0,21,0.00,,,0.00,,2013-10-19 15:55:00,
2013-10-19 09:24:00,58.0,17.0,30.19,NNW,346,0.0,0.0,20,0.00,,,0.00,,2013-10-19 16:24:00,
2013-10-19 09:53:00,62.0,20.0,30.20,NNW,346,0.0,0.0,20,0.00,,,0.00,,2013-10-19 16:53:00,
2013-10-19 10:22:00,65.0,20.0,30.20,South,185,2.0,4.0,18,0.00,,,0.00,,2013-10-19 17:22:00,
2013-10-19 10:52:00,66.0,19.0,30.20,South,178,4.0,8.0,16,0.00,,,0.00,,2013-10-19 17:52:00,
2013-10-19 11:21:00,68.0,19.0,30.20,SSW,202,1.0,11.0,15,0.00,,,0.00,,2013-10-19 18:21:00,
2013-10-19 11:52:00,69.0,18.0,30.20,South,182,2.0,8.0,14,0.00,,,0.00,,2013-10-19 18:52:00,
2013-10-19 12:22:00,70.0,17.0,30.19,South,171,1.0,10.0,13,0.00,,,0.00,,2013-10-19 19:22:00,
2013-10-19 12:52:00,70.0,15.0,30.19,South,191,7.0,12.0,12,0.00,,,0.00,,2013-10-19 19:52:00,
2013-10-19 13:22:00,71.0,21.0,30.18,SSE,166,5.0,17.0,15,0.00,,,0.00,,2013-10-19 20:22:00,
2013-10-19 13:52:00,71.0,18.0,30.17,South,173,6.0,13.0,13,0.00,,,0.00,,2013-10-19 20:52:00,
2013-10-19 14:21:00,71.0,18.0,30.16,South,189,4.0,12.0,13,0.00,,,0.00,,2013-10-19 21:21:00,
2013-10-19 14:54:00,72.0,18.0,30.15,SSW,193,1.0,12.0,13,0.00,,,0.00,,2013-10-19 21:54:00,
2013-10-19 15:24:00,73.0,17.0,30.14,SSE,163,3.0,9.0,12,0.00,,,0.00,,2013-10-19 22:24:00,
2013-10-19 15:43:00,74.0,18.0,30.14,South,187,2.0,6.0,12,0.00,,,0.00,,2013-10-19 22:43:00,
2013-10-19 15:53:00,74.0,14.0,30.14,SSE,151,3.0,8.0,10,0.00,,,0.00,,2013-10-19 22:53:00,
2013-10-19 16:22:00,74.0,20.0,30.13,South,190,0.0,6.0,13,0.00,,,0.00,,2013-10-19 23:22:00,
2013-10-19 16:52:00,74.0,18.0,30.13,SW,217,2.0,5.0,12,0.00,,,0.00,,2013-10-19 23:52:00,
2013-10-19 17:22:00,70.0,30.0,30.13,North,355,4.0,7.0,23,0.00,,,0.00,,2013-10-20 00:22:00,
2013-10-19 17:52:00,67.0,30.0,30.13,North,355,2.0,4.0,25,0.00,,,0.00,,2013-10-20 00:52:00,
2013-10-19 19:21:00,62.0,24.0,30.14,North,11,5.0,7.0,23,0.00,,,0.00,,2013-10-20 02:21:00,
2013-10-19 19:52:00,61.0,25.0,30.14,North,360,5.0,8.0,25,0.00,,,0.00,,2013-10-20 02:52:00,
2013-10-19 20:21:00,64.0,18.0,30.14,NNW,333,9.0,12.0,17,0.00,,,0.00,,2013-10-20 03:21:00,
2013-10-19 20:54:00,63.0,18.0,30.14,North,355,9.0,14.0,17,0.00,,,0.00,,2013-10-20 03:54:00,
2013-10-19 21:02:00,-999.0,-99.9,30.14,NNW,347,10.0,14.0,-999,-99.99,,,-99.99,,2013-10-20 04:02:00,
2013-10-19 21:24:00,62.0,18.0,30.14,North,355,9.0,15.0,18,0.00,,,0.00,,2013-10-20 04:24:00,
2013-10-19 21:54:00,63.0,16.0,30.14,NNW,347,8.0,13.0,16,0.00,,,0.00,,2013-10-20 04:54:00,
2013-10-19 22:23:00,64.0,15.0,30.14,North,9,8.0,14.0,15,0.00,,,0.00,,2013-10-20 05:23:00,
2013-10-19 22:52:00,64.0,14.0,30.14,NNW,346,7.0,14.0,14,0.00,,,0.00,,2013-10-20 05:52:00,
2013-10-19 23:22:00,64.0,12.0,30.13,NNW,329,5.0,12.0,13,0.00,,,0.00,,2013-10-20 06:22:00,
2013-10-19 23:52:00,64.0,10.0,30.13,NNW,334,6.0,15.0,12,0.00,,,0.00,,2013-10-20 06:52:00,